INMARSAT 5-F4 (42698 NORAD) Tracking and Keplerian Element Data

This shows tracking and keplerian element data for the satellite.

Feedback or suggestion? Click here.




ElementValue
Catalog42698
NameINMARSAT 5-F4
Epoch Orbit1589
Epoch Day262.04551398
Epoch Year2021
RAAN169.6471
Inclination0.0264
Eccentricity3.44E-05
Argument of Perigee123.3005
Mean Anonmoly138.0937
Mean Motion1.00266418
Decay Rate5.2E-07
L11 42698U 17025A 21262.04551398 .00000052 00000-0 00000+0 0 9998
L22 42698 0.0264 169.6471 0000344 123.3005 138.0937 1.00266418 15894

Live tracking and technical data element details for INMARSAT 5-F4 (NORAD 42698). INMARSAT 5-F4 can be tracked NOW for your location showing map with azimuth and elevation plus other details from your city location.

Track the satellite on the map from your city or location and see movement details for azimuth, elevation, latitude, longitude, range, height, and movement on the map or in text.







IsCatalogInMostPopularTable: catalog: 42698, numindb: 671
Update: records affected: 1



GetName: 42698 INMARSAT 5-F4

Hit Count: updated at: Fri, 24 Sep 2021 19:15:17 GMT